ZAREMBO AK US current weather conditions

sailwx.info

Wind from 108 at 4 knots gusting 12

Air temperature 5.6° C
Dewpoint 3.9° C

Last reported at 2016-Apr-28 17:55 UTC.
Time now 2016-Apr-28 19:47 UTC

Location: N 56°18' W 132°51'.
View on Google Maps.

See reports from other nearby stations

  
Tides and Currents Weather Stations Pressure Air Temp Water Temp Dewpoint Dewpoint Depression Visibility Wind Speed Wind Dir Waves Ship Positions
date/time (UTC)wind fromknots sea level pressurealtimeterstation pressurevisibilityair tempwater tempwave heightnotes
2016-Apr-28 17:55 108 4 gusting 12 5.6
2016-Apr-28 16:55 111 3 gusting 12 5.6
2016-Apr-28 15:55 092 2 gusting 7 5.6
2016-Apr-28 14:55 103 3 gusting 8 5.0
2016-Apr-28 13:55 131 4 gusting 18 5.0
2016-Apr-28 12:55 123 5 gusting 12 6.7
2016-Apr-28 11:55 090 2 gusting 12 6.7
2016-Apr-28 10:55 127 3 gusting 9 6.7
2016-Apr-28 09:55 147 1 gusting 9 6.1
2016-Apr-28 08:55 098 5 gusting 13 6.1
2016-Apr-28 07:55 121 3 gusting 10 6.7
2016-Apr-28 06:55 125 4 gusting 13 7.2
2016-Apr-28 05:55 149 8 gusting 13 7.2
2016-Apr-28 04:55 141 5 gusting 12 7.2
2016-Apr-28 03:55 124 5 gusting 10 7.2
2016-Apr-28 02:55 157 5 gusting 7 7.2
2016-Apr-28 01:55 227 2 gusting 13 7.8
2016-Apr-28 00:55 202 3 gusting 14 8.3
2016-Apr-27 23:55 155 8 gusting 16 10.0
2016-Apr-27 22:55 182 6 gusting 13 8.3
2016-Apr-27 21:55 152 6 gusting 15 11.1
2016-Apr-27 20:55 163 8 gusting 13 9.4
2016-Apr-27 19:55 159 8 gusting 16 8.9
2016-Apr-27 18:55 157 8 gusting 13 8.3
2016-Apr-27 17:55 163 6 gusting 10 6.7
2016-Apr-27 16:55 150 4 gusting 9 5.6
2016-Apr-27 15:55 151 4 gusting 9 5.0
2016-Apr-27 14:55 186 2 gusting 5 5.0
2016-Apr-27 13:55 124 1 gusting 3 3.9
2016-Apr-27 12:55 300 0 gusting 2 3.9
2016-Apr-27 11:55 3.9
2016-Apr-27 10:55 103 0 gusting 3 4.4
2016-Apr-27 09:55 210 1 gusting 3 4.4
2016-Apr-27 08:55 187 4 gusting 9 4.4
2016-Apr-27 07:55 186 4 gusting 9 4.4
2016-Apr-27 06:55 162 6 gusting 12 5.0
2016-Apr-27 05:55 5.0
2016-Apr-27 04:55 5.0
2016-Apr-27 03:55 5.6
2016-Apr-27 02:55 034 1 gusting 5 6.1
2016-Apr-27 01:55 024 2 gusting 5 6.1
2016-Apr-27 00:55 068 1 gusting 6 6.1
2016-Apr-26 23:55 065 2 gusting 5 6.1
2016-Apr-26 22:55 102 1 gusting 7 6.1
2016-Apr-26 21:55 178 2 gusting 8 6.1
2016-Apr-26 20:55 170 3 gusting 7 6.7
2016-Apr-26 19:55 139 3 gusting 9 6.7